Flag for U.S.A. Weather past 2 weeks in Richmond, Virginia, U.S.A.

Now
67 °F

Passing clouds.


Feels Like: 67 °F
Forecast: 67 / 84 °F
Wind: 6 mph from North

Location: Richmond International Airport

Current Time: Jul 25, 2014 at 5:29:09 AM

Latest Report: Jul 25, 2014 at 4:54 AM


Visibility: 9 mi

Pressure: 29.99 "Hg

Humidity: 90%

Dew point: 64 °F

Location of RichmondLocation

Historic Weather in Richmond — Graph

°F

Richmond temperature yesterday

Maximum temperature yesterday: 84 °F (at 12:54 AM)
Minimum temperature yesterday: 70 °F (at 7:54 PM)
Average temperature yesterday: 76 °F

Past Weeks' High & Low Weather Summary

 TemperatureHumidityPressure
High99 °F (Jul 14, 2:54 PM)96% (Jul 22, 5:54 AM)30.24 "Hg (Jul 22, 5:54 AM)
Low65 °F (Jul 18, 4:54 AM)28% (Jul 18, 2:54 PM)29.72 "Hg (Jul 15, 3:54 PM)
Average78 °F68%30.05 "Hg
* Reported Jul 10 3:54 AM — Jul 25 3:54 AM, Richmond, Weather by CustomWeather, © 2014

Note: Actual official high and low records may vary slightly from our data, if they occured in-between our weather recording intervals... More about our weather records

Advertising

Richmond weather history for previous 24 hours

 ConditionsComfort  
Time TempWeatherWind HumidityBarometerVisibility
3:54 AM
Jul 25
68 °FPassing clouds.7 mph90%29.99 "Hg10 mi
2:54 AM68 °FPassing clouds.5 mph90%29.99 "Hg9 mi
1:54 AM69 °FFog.7 mph90%29.99 "Hg6 mi
12:54 AM70 °FFog.5 mph90%29.96 "Hg3 mi
11:54 PM
Jul 24
71 °FFog.5 mph90%29.96 "Hg3 mi
10:54 PM71 °FFog.3 mph90%29.96 "Hg4 mi
9:54 PM71 °FMostly cloudy.5 mph90%29.96 "Hg7 mi
8:54 PM71 °FCloudy.No wind90%29.93 "Hg7 mi
7:54 PM70 °FRain. Fog.7 mph93%29.90 "Hg4 mi
6:54 PM71 °FLight rain. Fog.9 mph87%29.91 "Hg5 mi
5:54 PM72 °FRain. Fog.9 mph91%29.90 "Hg2 mi
5:01 PM73 °FStrong thunderstorms. Fog.12 mph94%29.86 "Hg1 mi
3:54 PM78 °FHeavy rain. More clouds than sun.8 mph82%29.86 "Hg2 mi
2:54 PM82 °FMostly cloudy.12 mph67%29.88 "Hg10 mi
1:54 PM83 °FMostly cloudy.3 mph61%29.89 "Hg10 mi
12:54 PM82 °FMostly cloudy.6 mph67%29.90 "Hg10 mi
11:54 AM79 °FLight rain. Cloudy.3 mph77%29.91 "Hg10 mi
10:54 AM78 °FMostly cloudy.No wind82%29.91 "Hg7 mi
9:54 AM75 °FRain. Fog.No wind88%29.91 "Hg2 mi
8:54 AM75 °FRain. Fog.No wind88%29.92 "Hg2 mi
7:54 AM74 °FLight rain. Fog.5 mph91%29.90 "Hg2 mi
6:54 AM75 °FLight rain. Fog.6 mph88%29.88 "Hg5 mi
5:54 AM76 °FLight rain. Mostly cloudy.10 mph82%29.88 "Hg5 mi
Weather by CustomWeather, © 2014

See weather overviewHow to use our weather pages